| time (UTC) | temp F | wind direction | speed knots | gust knots | rain 1hr in | rain 24hr in | rain mn in | humidity % | barometer mb |
| 20260831172515 | 80 | 338 | 6.1 | 10.4 | 0.00 | 0.00 | 0.00 | 78 | 1012.6 |
| 20260831171515 | 81 | 293 | 6.1 | 9.6 | 0.00 | 0.00 | 0.00 | 82 | 1012.6 |
| 20260831170516 | 79 | 315 | 6.1 | 9.6 | 0.00 | 0.00 | 0.00 | 84 | 1012.8 |
| 20260831165537 | 79 | 315 | 7.0 | 9.6 | 0.00 | 0.00 | 0.00 | 84 | 1012.8 |
| 20260831164516 | 78 | 315 | 6.1 | 8.7 | 0.00 | 0.00 | 0.00 | 85 | 1012.7 |
| 20260831163516 | 78 | 338 | 7.8 | 10.4 | 0.00 | 0.00 | 0.00 | 85 | 1012.7 |
| 20260831162515 | 78 | 338 | 7.0 | 9.6 | 0.00 | 0.00 | 0.00 | 86 | 1012.7 |
| 20260831161516 | 78 | 338 | 7.8 | 10.4 | 0.00 | 0.00 | 0.00 | 86 | 1012.7 |
| 20260831160515 | 78 | 315 | 7.8 | 11.3 | 0.00 | 0.00 | 0.00 | 87 | 1012.4 |
| 20260831155515 | 78 | 315 | 7.8 | 12.2 | 0.00 | 0.00 | 0.00 | 88 | 1012.3 |
| 20260831154538 | 78 | 338 | 7.8 | 10.4 | 0.00 | 0.00 | 0.00 | 91 | 1012.1 |
| 20260831153517 | 77 | 315 | 7.0 | 9.6 | 0.00 | 0.00 | 0.00 | 92 | 1012.0 |
| 20260831152538 | 76 | 338 | 7.0 | 9.6 | 0.00 | 0.00 | 0.00 | 93 | 1011.9 |
| 20260831151517 | 76 | 315 | 7.0 | 10.4 | 0.00 | 0.00 | 0.00 | 94 | 1011.9 |
| 20260831150517 | 76 | 338 | 7.0 | 9.6 | 0.00 | 0.00 | 0.00 | 96 | 1011.6 |
| 20260831145518 | 75 | 315 | 7.8 | 10.4 | 0.00 | 0.00 | 0.00 | 96 | 1011.6 |
| 20260831144517 | 75 | 338 | 7.0 | 9.6 | 0.00 | 0.00 | 0.00 | 96 | 1011.4 |
| 20260831143517 | 74 | 315 | 4.3 | 7.0 | 0.00 | 0.00 | 0.00 | 97 | 1011.4 |
| 20260831142518 | 74 | 293 | 4.3 | 7.0 | 0.00 | 0.00 | 0.00 | 97 | 1011.5 |
| 20260831141517 | 73 | 293 | 4.3 | 7.0 | 0.00 | 0.00 | 0.00 | 97 | 1011.6 |
| 20260831140537 | 73 | 293 | 4.3 | 9.6 | 0.00 | 0.00 | 0.00 | 97 | 1011.5 |
| 20260831135517 | 73 | 293 | 4.3 | 7.8 | 0.00 | 0.00 | 0.00 | 97 | 1011.5 |
| 20260831134518 | 73 | 293 | 4.3 | 7.0 | 0.00 | 0.00 | 0.00 | 97 | 1011.1 |
| 20260831133517 | 72 | 293 | 5.2 | 7.8 | 0.00 | 0.00 | 0.00 | 97 | 1010.9 |
| 20260831132517 | 72 | 270 | 3.5 | 7.8 | 0.00 | 0.00 | 0.00 | 98 | 1010.6 |
| 20260831131518 | 72 | 293 | 3.5 | 6.1 | 0.00 | 0.00 | 0.00 | 98 | 1010.5 |
| 20260831130517 | 71 | 293 | 4.3 | 7.8 | 0.00 | 0.00 | 0.00 | 98 | 1010.3 |
| 20260831125517 | 70 | 293 | 3.5 | 7.0 | 0.00 | 0.00 | 0.00 | 98 | 1010.3 |
| 20260831124538 | 70 | 270 | 1.7 | 2.6 | 0.00 | 0.00 | 0.00 | 98 | 1010.2 |
| 20260831123517 | 69 | 180 | 0.9 | 2.6 | 0.00 | 0.00 | 0.00 | 99 | 1010.0 |
| 20260831122517 | 69 | 180 | 0.9 | 2.6 | 0.00 | 0.00 | 0.00 | 99 | 1009.7 |
| 20260831121517 | 68 | 180 | 0.9 | 2.6 | 0.00 | 0.00 | 0.00 | 98 | 1009.5 |
| 20260831120517 | 68 | 180 | 1.7 | 2.6 | 0.00 | 0.00 | 0.00 | 98 | 1009.2 |
| 20260831115517 | 68 | 180 | 1.7 | 3.5 | 0.00 | 0.00 | 0.00 | 98 | 1009.3 |
| 20260831114517 | 68 | 203 | 2.6 | 4.3 | 0.00 | 0.00 | 0.00 | 98 | 1009.3 |
| 20260831113517 | 68 | 203 | 3.5 | 5.2 | 0.00 | 0.00 | 0.00 | 98 | 1009.1 |
| 20260831112517 | 67 | 203 | 2.6 | 4.3 | 0.00 | 0.00 | 0.00 | 98 | 1009.0 |
| 20260831111517 | 67 | 203 | 1.7 | 3.5 | 0.00 | 0.00 | 0.00 | 98 | 1008.9 |
| 20260831110517 | 68 | 180 | 2.6 | 5.2 | 0.00 | 0.00 | 0.00 | 98 | 1008.8 |
| 20260831105537 | 68 | 203 | 2.6 | 4.3 | 0.00 | 0.00 | 0.00 | 98 | 1008.6 |
| 20260831104517 | 68 | 203 | 1.7 | 3.5 | 0.00 | 0.00 | 0.00 | 98 | 1008.6 |
| 20260831103517 | 68 | 203 | 1.7 | 2.6 | 0.00 | 0.00 | 0.00 | 98 | 1008.5 |
| 20260831102517 | 69 | 203 | 0.9 | 1.7 | 0.00 | 0.00 | 0.00 | 98 | 1008.5 |
| 20260831101517 | 69 | 180 | 0.9 | 2.6 | 0.00 | 0.00 | 0.00 | 98 | 1008.6 |
| 20260831100517 | 69 | 0.0 | 0.0 | 0.00 | 0.00 | 0.00 | 98 | 1008.3 | |
| 20260831095516 | 69 | 180 | 1.7 | 3.5 | 0.00 | 0.00 | 0.00 | 98 | 1008.3 |
| 20260831094517 | 69 | 180 | 2.6 | 3.5 | 0.00 | 0.00 | 0.00 | 98 | 1008.3 |
| 20260831093538 | 70 | 180 | 2.6 | 4.3 | 0.00 | 0.00 | 0.00 | 98 | 1008.4 |
| 20260831092516 | 70 | 180 | 2.6 | 3.5 | 0.00 | 0.00 | 0.00 | 98 | 1008.5 |
| 20260831091517 | 70 | 203 | 3.5 | 6.1 | 0.00 | 0.00 | 0.00 | 98 | 1008.5 |
| 20260831090557 | 70 | 180 | 3.5 | 5.2 | 0.00 | 0.00 | 0.00 | 98 | 1008.3 |
| 20260831085518 | 70 | 180 | 2.6 | 5.2 | 0.00 | 0.00 | 0.00 | 98 | 1008.5 |
| 20260831084516 | 71 | 180 | 3.5 | 4.3 | 0.00 | 0.00 | 0.00 | 98 | 1008.5 |
| 20260831083657 | 71 | 180 | 3.5 | 6.1 | 0.00 | 0.00 | 0.00 | 98 | 1008.5 |
| 20260831082516 | 71 | 180 | 3.5 | 5.2 | 0.00 | 0.00 | 0.00 | 98 | 1008.3 |
| 20260831081516 | 71 | 180 | 3.5 | 5.2 | 0.00 | 0.00 | 0.00 | 97 | 1008.1 |
| 20260831080517 | 71 | 180 | 3.5 | 5.2 | 0.00 | 0.00 | 0.00 | 97 | 1008.3 |
| 20260831075516 | 71 | 180 | 5.2 | 7.8 | 0.00 | 0.00 | 0.00 | 97 | 1008.2 |
| 20260831074517 | 71 | 180 | 5.2 | 8.7 | 0.00 | 0.00 | 0.00 | 97 | 1008.2 |
| 20260831073516 | 71 | 180 | 5.2 | 9.6 | 0.00 | 0.00 | 0.00 | 97 | 1008.2 |
| 20260831072517 | 72 | 180 | 5.2 | 7.8 | 0.00 | 0.00 | 0.00 | 97 | 1008.3 |
| 20260831071537 | 72 | 180 | 6.1 | 8.7 | 0.00 | 0.00 | 0.00 | 97 | 1008.3 |
| 20260831070516 | 72 | 180 | 5.2 | 8.7 | 0.00 | 0.00 | 0.00 | 97 | 1008.3 |
| 20260831065536 | 72 | 180 | 5.2 | 9.6 | 0.00 | 0.00 | 0.00 | 97 | 1008.4 |
| 20260831064536 | 72 | 180 | 5.2 | 8.7 | 0.00 | 0.00 | 0.00 | 97 | 1008.4 |
| 20260831063517 | 72 | 180 | 6.1 | 10.4 | 0.00 | 0.00 | 0.00 | 97 | 1008.4 |
| 20260831062516 | 73 | 158 | 6.1 | 10.4 | 0.00 | 0.00 | 0.00 | 97 | 1008.2 |
| 20260831061516 | 73 | 180 | 7.0 | 10.4 | 0.00 | 0.00 | 0.00 | 96 | 1008.5 |
| 20260831060537 | 73 | 180 | 7.0 | 12.2 | 0.00 | 0.00 | 0.00 | 96 | 1008.6 |
| 20260831055516 | 73 | 180 | 7.0 | 10.4 | 0.00 | 0.00 | 0.00 | 96 | 1008.6 |
| 20260831054517 | 73 | 158 | 7.0 | 11.3 | 0.00 | 0.00 | 0.00 | 96 | 1008.5 |
| 20260831053516 | 73 | 158 | 6.1 | 8.7 | 0.00 | 0.00 | 0.00 | 96 | 1008.7 |
| 20260831052516 | 73 | 158 | 6.1 | 9.6 | 0.00 | 0.00 | 0.00 | 96 | 1008.9 |
| 20260831051516 | 73 | 180 | 6.1 | 8.7 | 0.00 | 0.00 | 0.00 | 96 | 1009.0 |
| 20260831050517 | 73 | 158 | 5.2 | 10.4 | 0.00 | 0.00 | 0.00 | 96 | 1008.9 |
| 20260831045517 | 73 | 180 | 6.1 | 7.8 | 0.00 | 0.00 | 0.00 | 95 | 1008.9 |
| 20260831044517 | 73 | 180 | 6.1 | 10.4 | 0.00 | 0.00 | 0.00 | 95 | 1008.9 |
| 20260831043518 | 73 | 180 | 6.1 | 10.4 | 0.00 | 0.00 | 0.00 | 95 | 1008.9 |
| 20260831042517 | 73 | 158 | 6.1 | 8.7 | 0.00 | 0.00 | 0.00 | 94 | 1008.8 |
| 20260831041517 | 74 | 158 | 6.1 | 11.3 | 0.00 | 0.00 | 0.00 | 94 | 1008.8 |
| 20260831040517 | 74 | 158 | 6.1 | 10.4 | 0.00 | 0.00 | 0.00 | 94 | 1008.9 |
| 20260831035518 | 74 | 158 | 6.1 | 9.6 | 0.00 | 0.00 | 0.00 | 94 | 1008.6 |
| 20260831034517 | 74 | 158 | 7.0 | 10.4 | 0.00 | 0.00 | 0.00 | 93 | 1008.5 |
| 20260831033517 | 74 | 158 | 7.8 | 11.3 | 0.00 | 0.00 | 0.00 | 93 | 1008.5 |
| 20260831032517 | 74 | 158 | 7.8 | 11.3 | 0.00 | 0.00 | 0.00 | 93 | 1008.4 |
| 20260831031517 | 74 | 158 | 8.7 | 14.8 | 0.00 | 0.00 | 0.00 | 92 | 1008.4 |
| 20260831030517 | 75 | 158 | 8.7 | 13.0 | 0.00 | 0.00 | 0.00 | 92 | 1008.3 |
| 20260831025617 | 75 | 158 | 7.8 | 11.3 | 0.00 | 0.00 | 0.00 | 92 | 1008.3 |
| 20260831024518 | 75 | 158 | 7.8 | 11.3 | 0.00 | 0.00 | 0.00 | 91 | 1008.4 |
| 20260831023516 | 76 | 158 | 7.8 | 11.3 | 0.00 | 0.00 | 0.00 | 91 | 1008.4 |
| 20260831022537 | 76 | 158 | 7.0 | 13.0 | 0.00 | 0.00 | 0.00 | 91 | 1008.3 |
| 20260831021517 | 76 | 158 | 7.0 | 12.2 | 0.00 | 0.00 | 0.00 | 90 | 1008.3 |
| 20260831020558 | 76 | 158 | 6.1 | 12.2 | 0.00 | 0.00 | 0.00 | 90 | 1008.1 |
| 20260831015518 | 77 | 158 | 7.0 | 10.4 | 0.00 | 0.00 | 0.00 | 89 | 1008.1 |
| 20260831014516 | 77 | 158 | 6.1 | 10.4 | 0.00 | 0.00 | 0.00 | 89 | 1008.2 |
| 20260831013517 | 77 | 158 | 6.1 | 10.4 | 0.00 | 0.00 | 0.00 | 88 | 1008.1 |
| 20260831012517 | 78 | 158 | 6.1 | 9.6 | 0.00 | 0.00 | 0.00 | 87 | 1007.8 |
| 20260831011517 | 78 | 158 | 6.1 | 9.6 | 0.00 | 0.00 | 0.00 | 87 | 1007.9 |
| 20260831010517 | 78 | 158 | 6.1 | 9.6 | 0.00 | 0.00 | 0.00 | 86 | 1007.9 |
| 20260831005517 | 79 | 158 | 6.1 | 8.7 | 0.00 | 0.00 | 0.00 | 86 | 1007.9 |
| 20260831004516 | 79 | 158 | 6.1 | 9.6 | 0.00 | 0.00 | 0.00 | 85 | 1007.8 |
| 20260831003537 | 80 | 158 | 6.1 | 9.6 | 0.00 | 0.00 | 0.00 | 83 | 1007.8 |
| 20260831002517 | 81 | 180 | 8.7 | 13.9 | 0.00 | 0.00 | 0.00 | 81 | 1007.9 |
| 20260831001521 | 82 | 158 | 8.7 | 13.9 | 0.00 | 0.00 | 0.00 | 80 | 1007.9 |
| 20260831000517 | 82 | 180 | 8.7 | 13.0 | 0.00 | 0.00 | 0.00 | 80 | 1008.1 |
| 20260830235517 | 82 | 158 | 5.2 | 8.7 | 0.00 | 0.00 | 0.00 | 83 | 1007.6 |
| 20260830234517 | 82 | 158 | 6.1 | 8.7 | 0.00 | 0.00 | 0.00 | 83 | 1007.7 |
| 20260830233516 | 82 | 158 | 7.0 | 10.4 | 0.00 | 0.00 | 0.00 | 82 | 1007.6 |
| 20260830232516 | 82 | 158 | 5.2 | 8.7 | 0.00 | 0.00 | 0.00 | 82 | 1007.4 |
| 20260830231517 | 83 | 158 | 6.1 | 13.9 | 0.00 | 0.00 | 0.00 | 81 | 1007.5 |
| 20260830230517 | 83 | 158 | 7.0 | 11.3 | 0.00 | 0.00 | 0.00 | 79 | 1007.5 |
| 20260830225517 | 84 | 158 | 7.0 | 11.3 | 0.00 | 0.00 | 0.00 | 78 | 1007.4 |
| 20260830224516 | 85 | 158 | 7.8 | 13.0 | 0.00 | 0.00 | 0.00 | 77 | 1007.3 |
| 20260830223516 | 84 | 158 | 7.8 | 13.0 | 0.00 | 0.00 | 0.00 | 78 | 1007.3 |
| 20260830222516 | 84 | 158 | 7.8 | 11.3 | 0.00 | 0.00 | 0.00 | 78 | 1007.4 |
| 20260830221537 | 84 | 158 | 7.0 | 11.3 | 0.00 | 0.00 | 0.00 | 77 | 1007.5 |
| 20260830220516 | 85 | 158 | 7.0 | 12.2 | 0.00 | 0.00 | 0.00 | 76 | 1007.3 |
| 20260830215536 | 86 | 158 | 8.7 | 13.0 | 0.00 | 0.00 | 0.00 | 72 | 1007.2 |
| 20260830214517 | 87 | 158 | 9.6 | 14.8 | 0.00 | 0.00 | 0.00 | 71 | 1007.4 |
| 20260830213536 | 87 | 180 | 9.6 | 17.4 | 0.00 | 0.00 | 0.00 | 71 | 1007.5 |
| 20260830212536 | 87 | 158 | 10.4 | 15.6 | 0.00 | 0.00 | 0.00 | 71 | 1007.7 |
| 20260830211517 | 88 | 158 | 10.4 | 16.5 | 0.00 | 0.00 | 0.00 | 71 | 1007.7 |
| 20260830210516 | 88 | 158 | 7.8 | 12.2 | 0.00 | 0.00 | 0.00 | 70 | 1007.6 |
| 20260830205516 | 88 | 158 | 8.7 | 13.0 | 0.00 | 0.00 | 0.00 | 70 | 1007.7 |
| 20260830204556 | 89 | 158 | 7.0 | 11.3 | 0.00 | 0.00 | 0.00 | 68 | 1007.7 |
| 20260830203537 | 89 | 158 | 7.8 | 10.4 | 0.00 | 0.00 | 0.00 | 66 | 1007.9 |
| 20260830202516 | 89 | 180 | 7.8 | 13.0 | 0.00 | 0.00 | 0.00 | 68 | 1007.7 |
| 20260830201516 | 89 | 158 | 6.1 | 9.6 | 0.00 | 0.00 | 0.00 | 68 | 1007.7 |
| 20260830200516 | 89 | 158 | 8.7 | 13.0 | 0.00 | 0.00 | 0.00 | 67 | 1007.8 |
| 20260830195517 | 89 | 135 | 7.0 | 11.3 | 0.00 | 0.00 | 0.00 | 68 | 1007.8 |
| 20260830194517 | 88 | 135 | 5.2 | 9.6 | 0.00 | 0.00 | 0.00 | 72 | 1007.9 |
| 20260830193516 | 88 | 158 | 7.0 | 11.3 | 0.00 | 0.00 | 0.00 | 72 | 1008.1 |
| 20260830192516 | 88 | 135 | 6.1 | 9.6 | 0.00 | 0.00 | 0.00 | 74 | 1008.1 |
| 20260830191516 | 87 | 158 | 7.0 | 11.3 | 0.00 | 0.00 | 0.00 | 73 | 1007.9 |
| 20260830190517 | 87 | 135 | 6.1 | 9.6 | 0.00 | 0.00 | 0.00 | 73 | 1007.9 |
| 20260830185516 | 87 | 135 | 6.1 | 10.4 | 0.00 | 0.00 | 0.00 | 72 | 1008.0 |
| 20260830184516 | 86 | 135 | 7.0 | 9.6 | 0.00 | 0.00 | 0.00 | 73 | 1008.2 |
| 20260830183515 | 86 | 135 | 3.5 | 7.8 | 0.00 | 0.00 | 0.00 | 75 | 1008.2 |
| 20260830182516 | 86 | 158 | 6.1 | 8.7 | 0.00 | 0.00 | 0.00 | 74 | 1008.3 |
| 20260830181515 | 86 | 135 | 4.3 | 7.8 | 0.00 | 0.00 | 0.00 | 74 | 1008.4 |
| 20260830180536 | 85 | 113 | 4.3 | 8.7 | 0.00 | 0.00 | 0.00 | 77 | 1008.5 |
| 20260830175536 | 85 | 135 | 4.3 | 7.8 | 0.00 | 0.00 | 0.00 | 76 | 1008.5 |
| 20260830174516 | 85 | 135 | 3.5 | 8.7 | 0.00 | 0.00 | 0.00 | 76 | 1008.4 |
| 20260830173515 | 85 | 135 | 3.5 | 7.0 | 0.00 | 0.00 | 0.00 | 79 | 1008.6 |